Home   Weather   Atascadero   Past weeks
Flag for USA

Past Weather in Atascadero, California, USA — Yesterday and Last 2 Weeks

Now
27 °F

Clear.


Feels Like: 27 °F
Forecast: 55 / 28 °F
Wind: No wind

Location: Paso Robles Municipal Airport

Current Time: Feb 19, 2019 at 5:11:13 am

Latest Report: Feb 19, 2019 at 3:53 am


Visibility: 10 mi

Pressure: 30.19 "Hg

Humidity: 96%

Dew Point: 26 °F

Location of AtascaderoLocation

Past Weather in Atascadero — Graph

°F

Atascadero Temperature Yesterday

Maximum temperature yesterday: 53 °F (at 3:53 pm)
Minimum temperature yesterday: 28 °F (at 5:53 am)
Average temperature yesterday: 38 °F

High & Low Weather Summary for the Past Weeks

 TemperatureHumidityPressure
High63 °F (Feb 14, 3:53 am)100% (Feb 6, 5:23 am)30.32 "Hg (Feb 6, 5:23 am)
Low27 °F (Feb 6, 4:53 am)42% (Feb 7, 3:53 pm)29.52 "Hg (Feb 14, 4:53 am)
Average44 °F84%30.01 "Hg
* Reported Feb 4 4:01 am — Feb 19 3:53 am, Atascadero. Weather by CustomWeather, © 2019

Note: Actual official high and low records may vary slightly from our data, if they occured in-between our weather recording intervals... More about our weather records

Advertising

Atascadero Weather History for the Previous 24 Hours

Scroll right to see more
 ConditionsComfort  
Time TempWeatherWind HumidityBarometerVisibility
3:53 am
Tue, Feb 19
27 °FClear.No wind96%30.19 "Hg10 mi
2:53 am28 °FClear.No wind93%30.20 "Hg10 mi
1:53 am30 °FClear.No wind92%30.21 "Hg10 mi
12:53 am30 °FClear.3 mph92%30.21 "Hg10 mi
11:53 pm
Mon, Feb 18
32 °FClear.No wind88%30.22 "Hg10 mi
10:53 pm35 °FClear.No wind82%30.22 "Hg10 mi
9:53 pm35 °FClear.No wind82%30.22 "Hg10 mi
8:53 pm40 °FClear.No wind68%30.21 "Hg10 mi
7:53 pm41 °FClear.6 mph67%30.19 "Hg10 mi
6:53 pm43 °FClear.No wind68%30.17 "Hg10 mi
5:53 pm47 °FPassing clouds.3 mph64%30.15 "Hg10 mi
4:53 pm51 °FSunny.16 mph50%30.12 "Hg10 mi
3:53 pm53 °FSunny.15 mph47%30.11 "Hg10 mi
2:53 pm52 °FSunny.13 mph50%30.12 "Hg10 mi
1:53 pm52 °FSunny.12 mph53%30.14 "Hg10 mi
12:53 pm50 °FSunny.8 mph52%30.16 "Hg10 mi
11:53 am48 °FSunny.9 mph61%30.19 "Hg10 mi
10:53 am41 °FSunny.No wind86%30.20 "Hg10 mi
10:06 am36 °FScattered clouds.No wind97%30.18 "Hg10 mi
9:53 am36 °FPartly sunny.5 mph97%30.19 "Hg10 mi
9:07 am32 °FIce fog.No wind100%30.18 "Hg3 mi
8:34 am31 °FIce fog.3 mph96%30.18 "Hg2 mi
8:07 am31 °FScattered clouds.No wind100%30.17 "Hg10 mi
7:24 am30 °FIce fog.No wind100%30.15 "Hg0 mi
7:19 am30 °FIce fog.No wind100%30.15 "Hg1 mi
6:53 am28 °FScattered clouds.No wind96%30.16 "Hg10 mi
5:53 am28 °FClear.No wind96%30.13 "Hg9 mi
Weather by CustomWeather, © 2019

See weather overview